Regional Weather Roundup
Issued by NWS Green Bay, WI

Home | Current Version | Previous Version | Graphics & Text | Print | Product List | Glossary Off
Versions: 1 2 3 4 5 6 7 8 9 10 11 12 13 14 15 16 17 18 19 20 21 22 23 24 25 26 27 28 29 30 31 32 33 34 35 36 37 38 39 40 41 42 43 44 45 46 47 48 49 50

000
ASUS43 KGRB 180811
RWRGRB

NORTH-CENTRAL AND NORTHEAST WISCONSIN REGIONAL WEATHER ROUNDUP
NATIONAL WEATHER SERVICE GREEN BAY WI
300 AM CDT FRI AUG 18 2017

WIZ005-009-010>012-018-019-180900-
NORTH CENTRAL WISCONSIN

CITY           SKY/WX    TMP DP  RH WIND       PRES   REMARKS
IRONWOOD       CLOUDY    60  59  96 NW12      29.74R
MANITOWISH WTR DRIZZLE   59  59 100 NW12      29.73R
ARBOR VITAE    DRIZZLE   60  59  96 NW9       29.72S
EAGLE RIVER    DRIZZLE   59  59 100 NW7       29.70R
LAND O LAKES   CLOUDY    60  59  97 NW7       29.71R FOG
RHINELANDER    CLOUDY    60  60 100 W8        29.72S
PHILLIPS       CLOUDY    60  60  99 NW6       29.75S
ANTIGO         CLOUDY    60  59  97 NW10G17   29.71S
TOMAHAWK         N/A     60  57  92 W6        29.74S
MERRILL        CLOUDY    61  61 100 NW8       29.74R
$$

WIZ013-073-180900-
NORTHEAST WISCONSIN

CITY           SKY/WX    TMP DP  RH WIND       PRES   REMARKS
IRON MOUNTAIN  CLOUDY    62  57  83 NW8G18    29.60F
MARINETTE      CLOUDY    64  59  83 NW8       29.61S
OCONTO         CLOUDY    63  59  88 W12       29.63R
$$

WIZ017-030-035>037-045-180900-
CENTRAL WISCONSIN

CITY           SKY/WX    TMP DP  RH WIND       PRES   REMARKS
MEDFORD        CLOUDY    60  58  94 W9        29.76S
WAUSAU         CLOUDY    62  60  93 NW12      29.72S
MOSINEE        CLOUDY    61  59  94 W10G18    29.75S
MARSHFIELD     CLOUDY    62  58  86 NW13G22   29.76R
WISC RAPIDS    CLOUDY    63  61  93 NW8       29.77R
STEVENS POINT  CLOUDY    61  61 100 W9        29.75R
WAUPACA        CLOUDY    66  63  89 W10       29.72S
SHAWANO        PTCLDY    64  59  83 W9        29.67S
CLINTONVILLE   CLEAR     63  57  82 W13G18    29.69S
WAUTOMA        CLOUDY    65  61  87 W12       29.75
$$

WIZ038-039-048-051-180900-
FOX VALLEY

CITY           SKY/WX    TMP DP  RH WIND       PRES   REMARKS
NWS GREEN BAY  NOT AVBL
APPLETON       MOCLDY    63  55  77 W14       29.69S
OSHKOSH        LGT RAIN  64  62  93 W9        29.71R
FOND DU LAC    LGT RAIN  64  61  90 W9        29.73R
$$

WIZ022-050-052-180900-
EAST CENTRAL WISCONSIN

CITY           SKY/WX    TMP DP  RH WIND       PRES   REMARKS
EPHRAIM        CLOUDY    63  59  87 W12G17    29.60R
WASHINGTON ISL CLOUDY    63  60  90 NW12G17   29.57S
STURGEON BAY   CLOUDY    65  60  84 W13G18    29.63R
MANITOWOC      MOCLDY    65  59  81 W16       29.67R
SHEBOYGAN      CLOUDY    66  62  87 W12G23    29.68S
$$

LMZ563-521-522-541>543-180900-
LAKESHORE

STATION/POSITION TIME  TEMP    WIND        PRES    VSBY  WAVE
                       AIR SEA DIR/SP/G                  HT/PER
                 (UTC) (F)     (DEG/KT/KT) (MB)    (MI)  (FT/S)
SHEBOYGAN LKSHOR 0800   67     280/ 14/ 19 1004.7R
KEWAUNEE LKSHORE 0748   66     280/  8/ 15 1002.9R
NORTHPORT PIER   0740   64     280/  8/ 13 1001.7S
N MID LAKE BUOY  0750   65 67  270/ 21/ 25 1000.5R         4/ 6
S GREEN BAY BUOY 0800   66 71  260/ 16/ 21 1003.3
SISTER BAY LKSHO 0803   65     300/ 17/ 18   N/A
MENOMINEE LKSHOR 0748   65     280/  9/ 15 1002.2S
$$




USA.gov is the U.S. government's official web portal to all federal, state and local government web resources and services.